Year,Month,Day,Hour,Minute,Value (Times are PST for temperature in C)
2011,04,07,00,00,3.80
2011,04,07,00,01,3.80
2011,04,07,00,02,3.80
2011,04,07,00,03,3.80
2011,04,07,00,04,3.80
2011,04,07,00,05,3.80
2011,04,07,00,06,3.80
2011,04,07,00,07,3.80
2011,04,07,00,08,3.80
2011,04,07,00,09,3.80
2011,04,07,00,10,3.80
2011,04,07,00,11,3.80
2011,04,07,00,12,3.80
2011,04,07,00,13,3.80
2011,04,07,00,14,3.80
2011,04,07,00,15,3.80
2011,04,07,00,16,3.80
2011,04,07,00,17,3.80
2011,04,07,00,18,3.80
2011,04,07,00,19,3.80
2011,04,07,00,20,3.80
2011,04,07,00,21,3.90
2011,04,07,00,22,3.90
2011,04,07,00,23,3.90
2011,04,07,00,24,3.90
2011,04,07,00,25,3.90
2011,04,07,00,26,3.80
2011,04,07,00,27,3.80
2011,04,07,00,28,3.80
2011,04,07,00,29,3.80
2011,04,07,00,30,3.80
2011,04,07,00,31,3.80
2011,04,07,00,32,3.80
2011,04,07,00,33,3.80
2011,04,07,00,34,3.80
2011,04,07,00,35,3.80
2011,04,07,00,36,3.80
2011,04,07,00,37,3.70
2011,04,07,00,38,3.70
2011,04,07,00,39,3.70
2011,04,07,00,40,3.70
2011,04,07,00,41,3.70
2011,04,07,00,42,3.70
2011,04,07,00,43,3.70
2011,04,07,00,44,3.60
2011,04,07,00,45,3.60
2011,04,07,00,46,3.60
2011,04,07,00,47,3.60
2011,04,07,00,48,3.60
2011,04,07,00,49,3.60
2011,04,07,00,50,3.50
2011,04,07,00,51,3.50
2011,04,07,00,52,3.50
2011,04,07,00,53,3.50
2011,04,07,00,54,3.40
2011,04,07,00,55,3.40
2011,04,07,00,56,3.40
2011,04,07,00,57,3.40
2011,04,07,00,58,3.40
2011,04,07,00,59,3.30
2011,04,07,01,00,3.30
2011,04,07,01,01,3.30
2011,04,07,01,02,3.30
2011,04,07,01,03,3.30
2011,04,07,01,04,3.30
2011,04,07,01,05,3.30
2011,04,07,01,06,3.30
2011,04,07,01,07,3.30
2011,04,07,01,08,3.30
2011,04,07,01,09,3.30
2011,04,07,01,10,3.30
2011,04,07,01,11,3.30
2011,04,07,01,12,3.30
2011,04,07,01,13,3.20
2011,04,07,01,14,3.20
2011,04,07,01,15,3.20
2011,04,07,01,16,3.20
2011,04,07,01,17,3.20
2011,04,07,01,18,3.20
2011,04,07,01,19,3.20
2011,04,07,01,20,3.20
2011,04,07,01,21,3.20
2011,04,07,01,22,3.20
2011,04,07,01,23,3.20
2011,04,07,01,24,3.20
2011,04,07,01,25,3.20
2011,04,07,01,26,3.20
2011,04,07,01,27,3.20
2011,04,07,01,28,3.20
2011,04,07,01,29,3.20
2011,04,07,01,30,3.20
2011,04,07,01,31,3.20
2011,04,07,01,32,3.20
2011,04,07,01,33,3.20
2011,04,07,01,34,3.20
2011,04,07,01,35,3.20
2011,04,07,01,36,3.10
2011,04,07,01,37,3.10
2011,04,07,01,38,3.10
2011,04,07,01,39,3.10
2011,04,07,01,40,3.10
2011,04,07,01,41,3.10
2011,04,07,01,42,3.10
2011,04,07,01,43,3.10
2011,04,07,01,44,3.10
2011,04,07,01,45,3.10
2011,04,07,01,46,3.10
2011,04,07,01,47,3.10
2011,04,07,01,48,3.10
2011,04,07,01,49,3.10
2011,04,07,01,50,3.10
2011,04,07,01,51,3.00
2011,04,07,01,52,3.00
2011,04,07,01,53,3.00
2011,04,07,01,54,3.00
2011,04,07,01,55,3.00
2011,04,07,01,56,3.00
2011,04,07,01,57,3.00
2011,04,07,01,58,3.00
2011,04,07,01,59,3.00
2011,04,07,02,00,3.00
2011,04,07,02,01,3.00
2011,04,07,02,02,3.00
2011,04,07,02,03,3.00
2011,04,07,02,04,2.90
2011,04,07,02,05,2.90
2011,04,07,02,06,2.90
2011,04,07,02,07,2.90
2011,04,07,02,08,2.90
2011,04,07,02,09,2.90
2011,04,07,02,10,2.90
2011,04,07,02,11,2.90
2011,04,07,02,12,2.90
2011,04,07,02,13,2.90
2011,04,07,02,14,2.90
2011,04,07,02,15,2.90
2011,04,07,02,16,2.90
2011,04,07,02,17,2.90
2011,04,07,02,18,2.90
2011,04,07,02,19,2.90
2011,04,07,02,20,2.90
2011,04,07,02,21,2.90
2011,04,07,02,22,2.90
2011,04,07,02,23,2.90
2011,04,07,02,24,2.90
2011,04,07,02,25,2.90
2011,04,07,02,26,2.90
2011,04,07,02,27,2.90
2011,04,07,02,28,2.90
2011,04,07,02,29,2.80
2011,04,07,02,30,2.80
2011,04,07,02,31,2.80
2011,04,07,02,32,2.80
2011,04,07,02,33,2.80
2011,04,07,02,34,2.80
2011,04,07,02,35,2.80
2011,04,07,02,36,2.80
2011,04,07,02,37,2.80
2011,04,07,02,38,2.80
2011,04,07,02,39,2.80
2011,04,07,02,40,2.80
2011,04,07,02,41,2.80
2011,04,07,02,42,2.80
2011,04,07,02,43,2.80
2011,04,07,02,44,2.80
2011,04,07,02,45,2.80
2011,04,07,02,46,2.80
2011,04,07,02,47,2.80
2011,04,07,02,48,2.80
2011,04,07,02,49,2.80
2011,04,07,02,50,2.70
2011,04,07,02,51,2.70
2011,04,07,02,52,2.70
2011,04,07,02,53,2.70
2011,04,07,02,54,2.70
2011,04,07,02,55,2.70
2011,04,07,02,56,2.70
2011,04,07,02,57,2.70
2011,04,07,02,58,2.70
2011,04,07,02,59,2.60
2011,04,07,03,00,2.60
2011,04,07,03,01,2.60
2011,04,07,03,02,2.60
2011,04,07,03,03,2.60
2011,04,07,03,04,2.60
2011,04,07,03,05,2.60
2011,04,07,03,06,2.60
2011,04,07,03,07,2.60
2011,04,07,03,08,2.50
2011,04,07,03,09,2.50
2011,04,07,03,10,2.50
2011,04,07,03,11,2.50
2011,04,07,03,12,2.50
2011,04,07,03,13,2.40
2011,04,07,03,14,2.40
2011,04,07,03,15,2.40
2011,04,07,03,16,2.40
2011,04,07,03,17,2.40
2011,04,07,03,18,2.40
2011,04,07,03,19,2.40
2011,04,07,03,20,2.30
2011,04,07,03,21,2.30
2011,04,07,03,22,2.30
2011,04,07,03,23,2.30
2011,04,07,03,24,2.30
2011,04,07,03,25,2.30
2011,04,07,03,26,2.30
2011,04,07,03,27,2.20
2011,04,07,03,28,2.20
2011,04,07,03,29,2.20
2011,04,07,03,30,2.20
2011,04,07,03,31,2.20
2011,04,07,03,32,2.20
2011,04,07,03,33,2.20
2011,04,07,03,34,2.20
2011,04,07,03,35,2.20
2011,04,07,03,36,2.20
2011,04,07,03,37,2.20
2011,04,07,03,38,2.20
2011,04,07,03,39,2.20
2011,04,07,03,40,2.30
2011,04,07,03,41,2.20
2011,04,07,03,42,2.30
2011,04,07,03,43,2.30
2011,04,07,03,44,2.30
2011,04,07,03,45,2.30
2011,04,07,03,46,2.30
2011,04,07,03,47,2.30
2011,04,07,03,48,2.30
2011,04,07,03,49,2.30
2011,04,07,03,50,2.30
2011,04,07,03,51,2.30
2011,04,07,03,52,2.30
2011,04,07,03,53,2.30
2011,04,07,03,54,2.30
2011,04,07,03,55,2.30
2011,04,07,03,56,2.30
2011,04,07,03,57,2.20
2011,04,07,03,58,2.20
2011,04,07,03,59,2.20
2011,04,07,04,00,2.20
2011,04,07,04,01,2.20
2011,04,07,04,02,2.20
2011,04,07,04,03,2.20
2011,04,07,04,04,2.20
2011,04,07,04,05,2.20
2011,04,07,04,06,2.20
2011,04,07,04,07,2.20
2011,04,07,04,08,2.20
2011,04,07,04,09,2.20
2011,04,07,04,10,2.20
2011,04,07,04,11,2.20
2011,04,07,04,12,2.20
2011,04,07,04,13,2.20
2011,04,07,04,14,2.20
2011,04,07,04,15,2.10
2011,04,07,04,16,2.10
2011,04,07,04,17,2.10
2011,04,07,04,18,2.10
2011,04,07,04,19,2.10
2011,04,07,04,20,2.10
2011,04,07,04,21,2.10
2011,04,07,04,22,2.10
2011,04,07,04,23,2.10
2011,04,07,04,24,2.10
2011,04,07,04,25,2.10
2011,04,07,04,26,2.10
2011,04,07,04,27,2.10
2011,04,07,04,28,2.10
2011,04,07,04,29,2.10
2011,04,07,04,30,2.10
2011,04,07,04,31,2.10
2011,04,07,04,32,2.20
2011,04,07,04,33,2.20
2011,04,07,04,34,2.20
2011,04,07,04,35,2.20
2011,04,07,04,36,2.20
2011,04,07,04,37,2.20
2011,04,07,04,38,2.10
2011,04,07,04,39,2.10
2011,04,07,04,40,2.10
2011,04,07,04,41,2.10
2011,04,07,04,42,2.10
2011,04,07,04,43,2.10
2011,04,07,04,44,2.00
2011,04,07,04,45,2.00
2011,04,07,04,46,2.00
2011,04,07,04,47,1.90
2011,04,07,04,48,1.90
2011,04,07,04,49,1.90
2011,04,07,04,50,1.90
2011,04,07,04,51,1.80
2011,04,07,04,52,1.80
2011,04,07,04,53,1.80
2011,04,07,04,54,1.80
2011,04,07,04,55,1.80
2011,04,07,04,56,1.80
2011,04,07,04,57,1.80
2011,04,07,04,58,1.80
2011,04,07,04,59,1.80
2011,04,07,05,00,1.80
2011,04,07,05,01,1.70
2011,04,07,05,02,1.70
2011,04,07,05,03,1.70
2011,04,07,05,04,1.70
2011,04,07,05,05,1.70
2011,04,07,05,06,1.70
2011,04,07,05,07,1.80
2011,04,07,05,08,1.80
2011,04,07,05,09,1.80
2011,04,07,05,10,1.80
2011,04,07,05,11,1.80
2011,04,07,05,12,1.80
2011,04,07,05,13,1.80
2011,04,07,05,14,1.80
2011,04,07,05,15,1.80
2011,04,07,05,16,1.80
2011,04,07,05,17,1.80
2011,04,07,05,18,1.90
2011,04,07,05,19,1.90
2011,04,07,05,20,1.90
2011,04,07,05,21,1.90
2011,04,07,05,22,1.90
2011,04,07,05,23,1.90
2011,04,07,05,24,2.00
2011,04,07,05,25,2.00
2011,04,07,05,26,2.00
2011,04,07,05,27,2.00
2011,04,07,05,28,2.00
2011,04,07,05,29,2.00
2011,04,07,05,30,2.00
2011,04,07,05,31,2.00
2011,04,07,05,32,2.00
2011,04,07,05,33,2.00
2011,04,07,05,34,2.00
2011,04,07,05,35,2.00
2011,04,07,05,36,1.90
2011,04,07,05,37,1.90
2011,04,07,05,38,1.90
2011,04,07,05,39,1.90
2011,04,07,05,40,1.90
2011,04,07,05,41,1.90
2011,04,07,05,42,1.90
2011,04,07,05,43,1.90
2011,04,07,05,44,1.90
2011,04,07,05,45,1.90
2011,04,07,05,46,1.90
2011,04,07,05,47,1.90
2011,04,07,05,48,1.90
2011,04,07,05,49,1.90
2011,04,07,05,50,1.80
2011,04,07,05,51,1.90
2011,04,07,05,52,1.90
2011,04,07,05,53,1.90
2011,04,07,05,54,1.90
2011,04,07,05,55,1.90
2011,04,07,05,56,1.90
2011,04,07,05,57,1.90
2011,04,07,05,58,1.90
2011,04,07,05,59,1.90
2011,04,07,06,00,1.90
2011,04,07,06,01,1.90
2011,04,07,06,02,1.90
2011,04,07,06,03,1.90
2011,04,07,06,04,1.90
2011,04,07,06,05,1.80
2011,04,07,06,06,1.80
2011,04,07,06,07,1.80
2011,04,07,06,08,1.80
2011,04,07,06,09,1.80
2011,04,07,06,10,1.80
2011,04,07,06,11,1.80
2011,04,07,06,12,1.70
2011,04,07,06,13,1.70
2011,04,07,06,14,1.70
2011,04,07,06,15,1.70
2011,04,07,06,16,1.70
2011,04,07,06,17,1.80
2011,04,07,06,18,1.80
2011,04,07,06,19,1.80
2011,04,07,06,20,1.80
2011,04,07,06,21,1.80
2011,04,07,06,22,1.70
2011,04,07,06,23,1.70
2011,04,07,06,24,1.70
2011,04,07,06,25,1.70
2011,04,07,06,26,1.70
2011,04,07,06,27,1.70
2011,04,07,06,28,1.70
2011,04,07,06,29,1.70
2011,04,07,06,30,1.70
2011,04,07,06,31,1.70
2011,04,07,06,32,1.70
2011,04,07,06,33,1.70
2011,04,07,06,34,1.70
2011,04,07,06,35,1.70
2011,04,07,06,36,1.70
2011,04,07,06,37,1.80
2011,04,07,06,38,1.80
2011,04,07,06,39,1.80
2011,04,07,06,40,1.70
2011,04,07,06,41,1.80
2011,04,07,06,42,1.80
2011,04,07,06,43,1.80
2011,04,07,06,44,1.80
2011,04,07,06,45,1.80
2011,04,07,06,46,1.80
2011,04,07,06,47,1.70
2011,04,07,06,48,1.70
2011,04,07,06,49,1.80
2011,04,07,06,50,1.80
2011,04,07,06,51,1.80
2011,04,07,06,52,1.80
2011,04,07,06,53,1.80
2011,04,07,06,54,1.80
2011,04,07,06,55,1.80
2011,04,07,06,56,1.80
2011,04,07,06,57,1.80
2011,04,07,06,58,1.80
2011,04,07,06,59,1.80
2011,04,07,07,00,1.80
2011,04,07,07,01,1.80
2011,04,07,07,02,1.80
2011,04,07,07,03,1.80
2011,04,07,07,04,1.80
2011,04,07,07,05,1.80
2011,04,07,07,06,1.80
2011,04,07,07,07,1.80
2011,04,07,07,08,1.80
2011,04,07,07,09,1.90
2011,04,07,07,10,1.90
2011,04,07,07,11,1.90
2011,04,07,07,12,1.90
2011,04,07,07,13,1.90
2011,04,07,07,14,1.90
2011,04,07,07,15,1.90
2011,04,07,07,16,1.90
2011,04,07,07,17,1.90
2011,04,07,07,18,1.90
2011,04,07,07,19,1.90
2011,04,07,07,20,1.90
2011,04,07,07,21,1.90
2011,04,07,07,22,1.90
2011,04,07,07,23,1.90
2011,04,07,07,24,1.90
2011,04,07,07,25,1.90
2011,04,07,07,26,1.90
2011,04,07,07,27,1.90
2011,04,07,07,28,1.90
2011,04,07,07,29,1.90
2011,04,07,07,30,1.90
2011,04,07,07,31,1.90
2011,04,07,07,32,1.90
2011,04,07,07,33,1.90
2011,04,07,07,34,1.90
2011,04,07,07,35,1.90
2011,04,07,07,36,1.90
2011,04,07,07,37,1.90
2011,04,07,07,38,1.90
2011,04,07,07,39,1.90
2011,04,07,07,40,1.90
2011,04,07,07,41,1.90
2011,04,07,07,42,1.90
2011,04,07,07,43,1.90
2011,04,07,07,44,2.00
2011,04,07,07,45,2.00
2011,04,07,07,46,2.00
2011,04,07,07,47,2.00
2011,04,07,07,48,2.00
2011,04,07,07,49,2.00
2011,04,07,07,50,2.10
2011,04,07,07,51,2.10
2011,04,07,07,52,2.10
2011,04,07,07,53,2.10
2011,04,07,07,54,2.10
2011,04,07,07,55,2.10
2011,04,07,07,56,2.10
2011,04,07,07,57,2.10
2011,04,07,07,58,2.10
2011,04,07,07,59,2.10
2011,04,07,08,00,2.20
2011,04,07,08,01,2.20
2011,04,07,08,02,2.20
2011,04,07,08,03,2.20
2011,04,07,08,04,2.20
2011,04,07,08,05,2.20
2011,04,07,08,06,2.30
2011,04,07,08,07,2.30
2011,04,07,08,08,2.30
2011,04,07,08,09,2.30
2011,04,07,08,10,2.30
2011,04,07,08,11,2.30
2011,04,07,08,12,2.30
2011,04,07,08,13,2.40
2011,04,07,08,14,2.40
2011,04,07,08,15,2.40
2011,04,07,08,16,2.40
2011,04,07,08,17,2.40
2011,04,07,08,18,2.40
2011,04,07,08,19,2.40
2011,04,07,08,20,2.40
2011,04,07,08,21,2.40
2011,04,07,08,22,2.50
2011,04,07,08,23,2.50
2011,04,07,08,24,2.50
2011,04,07,08,25,2.50
2011,04,07,08,26,2.60
2011,04,07,08,27,2.60
2011,04,07,08,28,2.60
2011,04,07,08,29,2.70
2011,04,07,08,30,2.70
2011,04,07,08,31,2.70
2011,04,07,08,32,2.70
2011,04,07,08,33,2.80
2011,04,07,08,34,2.80
2011,04,07,08,35,2.80
2011,04,07,08,36,2.80
2011,04,07,08,37,2.90
2011,04,07,08,38,2.90
2011,04,07,08,39,2.90
2011,04,07,08,40,3.00
2011,04,07,08,41,3.00
2011,04,07,08,42,3.10
2011,04,07,08,43,3.10
2011,04,07,08,44,3.10
2011,04,07,08,45,3.20
2011,04,07,08,46,3.20
2011,04,07,08,47,3.20
2011,04,07,08,48,3.30
2011,04,07,08,49,3.30
2011,04,07,08,50,3.30
2011,04,07,08,51,3.40
2011,04,07,08,52,3.40
2011,04,07,08,53,3.50
2011,04,07,08,54,3.50
2011,04,07,08,55,3.60
2011,04,07,08,56,3.60
2011,04,07,08,57,3.70
2011,04,07,08,58,3.70
2011,04,07,08,59,3.70
2011,04,07,09,00,3.70
2011,04,07,09,01,3.80
2011,04,07,09,02,3.80
2011,04,07,09,03,3.80
2011,04,07,09,04,3.80
2011,04,07,09,05,3.90
2011,04,07,09,06,3.90
2011,04,07,09,07,3.90
2011,04,07,09,08,4.00
2011,04,07,09,09,4.00
2011,04,07,09,10,4.00
2011,04,07,09,11,4.10
2011,04,07,09,12,4.10
2011,04,07,09,13,4.20
2011,04,07,09,14,4.20
2011,04,07,09,15,4.20
2011,04,07,09,16,4.30
2011,04,07,09,17,4.30
2011,04,07,09,18,4.30
2011,04,07,09,19,4.30
2011,04,07,09,20,4.30
2011,04,07,09,21,4.30
2011,04,07,09,22,4.40
2011,04,07,09,23,4.40
2011,04,07,09,24,4.40
2011,04,07,09,25,4.50
2011,04,07,09,26,4.50
2011,04,07,09,27,4.60
2011,04,07,09,28,4.60
2011,04,07,09,29,4.70
2011,04,07,09,30,4.70
2011,04,07,09,31,4.80
2011,04,07,09,32,4.80
2011,04,07,09,33,4.90
2011,04,07,09,34,4.90
2011,04,07,09,35,4.90
2011,04,07,09,36,5.00
2011,04,07,09,37,5.00
2011,04,07,09,38,5.10
2011,04,07,09,39,5.10
2011,04,07,09,40,5.10
2011,04,07,09,41,5.20
2011,04,07,09,42,5.20
2011,04,07,09,43,5.20
2011,04,07,09,44,5.20
2011,04,07,09,45,5.20
2011,04,07,09,46,5.20
2011,04,07,09,47,5.30
2011,04,07,09,48,5.30
2011,04,07,09,49,5.30
2011,04,07,09,50,5.30
2011,04,07,09,51,5.30
2011,04,07,09,52,5.30
2011,04,07,09,53,5.30
2011,04,07,09,54,5.30
2011,04,07,09,55,5.30
2011,04,07,09,56,5.30
2011,04,07,09,57,5.30
2011,04,07,09,58,5.40
2011,04,07,09,59,5.40
2011,04,07,10,00,5.40
2011,04,07,10,01,5.40
2011,04,07,10,02,5.40
2011,04,07,10,03,5.40
2011,04,07,10,04,5.50
2011,04,07,10,05,5.50
2011,04,07,10,06,5.50
2011,04,07,10,07,5.60
2011,04,07,10,08,5.60
2011,04,07,10,09,5.70
2011,04,07,10,10,5.70
2011,04,07,10,11,5.80
2011,04,07,10,12,5.80
2011,04,07,10,13,5.90
2011,04,07,10,14,6.00
2011,04,07,10,15,6.00
2011,04,07,10,16,6.10
2011,04,07,10,17,6.10
2011,04,07,10,18,6.10
2011,04,07,10,19,6.20
2011,04,07,10,20,6.20
2011,04,07,10,21,6.20
2011,04,07,10,22,6.20
2011,04,07,10,23,6.30
2011,04,07,10,24,6.30
2011,04,07,10,25,6.30
2011,04,07,10,26,6.30
2011,04,07,10,27,6.30
2011,04,07,10,28,6.40
2011,04,07,10,29,6.40
2011,04,07,10,30,6.40
2011,04,07,10,31,6.40
2011,04,07,10,32,6.40
2011,04,07,10,33,6.40
2011,04,07,10,34,6.40
2011,04,07,10,35,6.40
2011,04,07,10,36,6.40
2011,04,07,10,37,6.40
2011,04,07,10,38,6.40
2011,04,07,10,39,6.40
2011,04,07,10,40,6.40
2011,04,07,10,41,6.40
2011,04,07,10,42,6.40
2011,04,07,10,43,6.40
2011,04,07,10,44,6.40
2011,04,07,10,45,6.40
2011,04,07,10,46,6.40
2011,04,07,10,47,6.50
2011,04,07,10,48,6.50
2011,04,07,10,49,6.50
2011,04,07,10,50,6.60
2011,04,07,10,51,6.60
2011,04,07,10,52,6.60
2011,04,07,10,53,6.60
2011,04,07,10,54,6.60
2011,04,07,10,55,6.70
2011,04,07,10,56,6.70
2011,04,07,10,57,6.70
2011,04,07,10,58,6.70
2011,04,07,10,59,6.80
2011,04,07,11,00,6.80
2011,04,07,11,01,6.80
2011,04,07,11,02,6.90
2011,04,07,11,03,6.90
2011,04,07,11,04,6.90
2011,04,07,11,05,6.90
2011,04,07,11,06,7.00
2011,04,07,11,07,7.00
2011,04,07,11,08,7.00
2011,04,07,11,09,7.00
2011,04,07,11,10,7.00
2011,04,07,11,11,7.10
2011,04,07,11,12,7.10
2011,04,07,11,13,7.10
2011,04,07,11,14,7.10
2011,04,07,11,15,7.10
2011,04,07,11,16,7.10
2011,04,07,11,17,7.10
2011,04,07,11,18,7.10
2011,04,07,11,19,7.10
2011,04,07,11,20,7.10
2011,04,07,11,21,7.10
2011,04,07,11,22,7.10
2011,04,07,11,23,7.10
2011,04,07,11,24,7.10
2011,04,07,11,25,7.20
2011,04,07,11,26,7.20
2011,04,07,11,27,7.20
2011,04,07,11,28,7.30
2011,04,07,11,29,7.30
2011,04,07,11,30,7.40
2011,04,07,11,31,7.40
2011,04,07,11,32,7.40
2011,04,07,11,33,7.40
2011,04,07,11,34,7.40
2011,04,07,11,35,7.40
2011,04,07,11,36,7.40
2011,04,07,11,37,7.40
2011,04,07,11,38,7.30
2011,04,07,11,39,7.30
2011,04,07,11,40,7.30
2011,04,07,11,41,7.30
2011,04,07,11,42,7.30
2011,04,07,11,43,7.30
2011,04,07,11,44,7.30
2011,04,07,11,45,7.30
2011,04,07,11,46,7.30
2011,04,07,11,47,7.30
2011,04,07,11,48,7.30
2011,04,07,11,49,7.30
2011,04,07,11,50,7.30
2011,04,07,11,51,7.30
2011,04,07,11,52,7.30
2011,04,07,11,53,7.30
2011,04,07,11,54,7.30
2011,04,07,11,55,7.40
2011,04,07,11,56,7.40
2011,04,07,11,57,7.40
2011,04,07,11,58,7.50
2011,04,07,11,59,7.50
2011,04,07,12,00,7.60
2011,04,07,12,01,7.60
2011,04,07,12,02,7.60
2011,04,07,12,03,7.60
2011,04,07,12,04,7.60
2011,04,07,12,05,7.60
2011,04,07,12,06,7.60
2011,04,07,12,07,7.60
2011,04,07,12,08,7.60
2011,04,07,12,09,7.60
2011,04,07,12,10,7.70
2011,04,07,12,11,7.80
2011,04,07,12,12,7.80
2011,04,07,12,13,7.80
2011,04,07,12,14,7.80
2011,04,07,12,15,7.80
2011,04,07,12,16,7.80
2011,04,07,12,17,7.80
2011,04,07,12,18,7.80
2011,04,07,12,19,7.90
2011,04,07,12,20,7.90
2011,04,07,12,21,7.90
2011,04,07,12,22,8.00
2011,04,07,12,23,8.10
2011,04,07,12,24,8.10
2011,04,07,12,25,8.10
2011,04,07,12,26,8.10
2011,04,07,12,27,8.10
2011,04,07,12,28,8.10
2011,04,07,12,29,8.10
2011,04,07,12,30,8.10
2011,04,07,12,31,8.10
2011,04,07,12,32,8.20
2011,04,07,12,33,8.20
2011,04,07,12,34,8.20
2011,04,07,12,35,8.20
2011,04,07,12,36,8.30
2011,04,07,12,37,8.30
2011,04,07,12,38,8.30
2011,04,07,12,39,8.40
2011,04,07,12,40,8.40
2011,04,07,12,41,8.40
2011,04,07,12,42,8.40
2011,04,07,12,43,8.40
2011,04,07,12,44,8.40
2011,04,07,12,45,8.40
2011,04,07,12,46,8.40
2011,04,07,12,47,8.40
2011,04,07,12,48,8.50
2011,04,07,12,49,8.50
2011,04,07,12,50,8.50
2011,04,07,12,51,8.60
2011,04,07,12,52,8.60
2011,04,07,12,53,8.60
2011,04,07,12,54,8.60
2011,04,07,12,55,8.60
2011,04,07,12,56,8.60
2011,04,07,12,57,8.70
2011,04,07,12,58,8.70
2011,04,07,12,59,8.70
2011,04,07,13,00,8.70
2011,04,07,13,01,8.70
2011,04,07,13,02,8.70
2011,04,07,13,03,8.70
2011,04,07,13,04,8.70
2011,04,07,13,05,8.70
2011,04,07,13,06,8.70
2011,04,07,13,07,8.70
2011,04,07,13,08,8.70
2011,04,07,13,09,8.70
2011,04,07,13,10,8.70
2011,04,07,13,11,8.70
2011,04,07,13,12,8.70
2011,04,07,13,13,8.70
2011,04,07,13,14,8.70
2011,04,07,13,15,8.70
2011,04,07,13,16,8.80
2011,04,07,13,17,8.80
2011,04,07,13,18,8.80
2011,04,07,13,19,8.80
2011,04,07,13,20,8.90
2011,04,07,13,21,8.90
2011,04,07,13,22,8.90
2011,04,07,13,23,9.00
2011,04,07,13,24,9.00
2011,04,07,13,25,9.10
2011,04,07,13,26,9.10
2011,04,07,13,27,9.10
2011,04,07,13,28,9.20
2011,04,07,13,29,9.20
2011,04,07,13,30,9.20
2011,04,07,13,31,9.30
2011,04,07,13,32,9.30
2011,04,07,13,33,9.40
2011,04,07,13,34,9.40
2011,04,07,13,35,9.50
2011,04,07,13,36,9.50
2011,04,07,13,37,9.60
2011,04,07,13,38,9.60
2011,04,07,13,39,9.60
2011,04,07,13,40,9.60
2011,04,07,13,41,9.60
2011,04,07,13,42,9.60
2011,04,07,13,43,9.70
2011,04,07,13,44,9.70
2011,04,07,13,45,9.70
2011,04,07,13,46,9.70
2011,04,07,13,47,9.70
2011,04,07,13,48,9.70
2011,04,07,13,49,9.80
2011,04,07,13,50,9.80
2011,04,07,13,51,9.80
2011,04,07,13,52,9.80
2011,04,07,13,53,9.80
2011,04,07,13,54,9.80
2011,04,07,13,55,9.80
2011,04,07,13,56,9.70
2011,04,07,13,57,9.70
2011,04,07,13,58,9.70
2011,04,07,13,59,9.70
2011,04,07,14,00,9.70
2011,04,07,14,01,9.70
2011,04,07,14,02,9.70
2011,04,07,14,03,9.70
2011,04,07,14,04,9.70
2011,04,07,14,05,9.70
2011,04,07,14,06,9.70
2011,04,07,14,07,9.70
2011,04,07,14,08,9.70
2011,04,07,14,09,9.60
2011,04,07,14,10,9.70
2011,04,07,14,11,9.70
2011,04,07,14,12,9.70
2011,04,07,14,13,9.70
2011,04,07,14,14,9.70
2011,04,07,14,15,9.80
2011,04,07,14,16,9.90
2011,04,07,14,17,9.90
2011,04,07,14,18,9.90
2011,04,07,14,19,10.00
2011,04,07,14,20,10.00
2011,04,07,14,21,10.10
2011,04,07,14,22,10.10
2011,04,07,14,23,10.10
2011,04,07,14,24,10.10
2011,04,07,14,25,10.10
2011,04,07,14,26,10.10
2011,04,07,14,27,10.10
2011,04,07,14,28,10.10
2011,04,07,14,29,10.10
2011,04,07,14,30,10.10
2011,04,07,14,31,10.20
2011,04,07,14,32,10.30
2011,04,07,14,33,10.30
2011,04,07,14,34,10.40
2011,04,07,14,35,10.40
2011,04,07,14,36,10.50
2011,04,07,14,37,10.50
2011,04,07,14,38,10.40
2011,04,07,14,39,10.40
2011,04,07,14,40,10.50
2011,04,07,14,41,10.50
2011,04,07,14,42,10.60
2011,04,07,14,43,10.70
2011,04,07,14,44,10.70
2011,04,07,14,45,10.70
2011,04,07,14,46,10.70
2011,04,07,14,47,10.70
2011,04,07,14,48,10.80
2011,04,07,14,49,10.80
2011,04,07,14,50,10.80
2011,04,07,14,51,10.80
2011,04,07,14,52,10.80
2011,04,07,14,53,10.80
2011,04,07,14,54,10.80
2011,04,07,14,55,10.70
2011,04,07,14,56,10.60
2011,04,07,14,57,10.60
2011,04,07,14,58,10.60
2011,04,07,14,59,10.50
2011,04,07,15,00,10.50
2011,04,07,15,01,10.50
2011,04,07,15,02,10.40
2011,04,07,15,03,10.40
2011,04,07,15,04,10.40
2011,04,07,15,05,10.40
2011,04,07,15,06,10.40
2011,04,07,15,07,10.40
2011,04,07,15,08,10.40
2011,04,07,15,09,10.50
2011,04,07,15,10,10.60
2011,04,07,15,11,10.60
2011,04,07,15,12,10.70
2011,04,07,15,13,10.80
2011,04,07,15,14,10.90
2011,04,07,15,15,10.90
2011,04,07,15,16,11.00
2011,04,07,15,17,11.00
2011,04,07,15,18,10.90
2011,04,07,15,19,10.80
2011,04,07,15,20,10.70
2011,04,07,15,21,10.60
2011,04,07,15,22,10.60
2011,04,07,15,23,10.50
2011,04,07,15,24,10.40
2011,04,07,15,25,10.40
2011,04,07,15,26,10.40
2011,04,07,15,27,10.50
2011,04,07,15,28,10.50
2011,04,07,15,29,10.50
2011,04,07,15,30,10.50
2011,04,07,15,31,10.50
2011,04,07,15,32,10.50
2011,04,07,15,33,10.50
2011,04,07,15,34,10.50
2011,04,07,15,35,10.50
2011,04,07,15,36,10.40
2011,04,07,15,37,10.40
2011,04,07,15,38,10.40
2011,04,07,15,39,10.50
2011,04,07,15,40,10.50
2011,04,07,15,41,10.50
2011,04,07,15,42,10.50
2011,04,07,15,43,10.50
2011,04,07,15,44,10.60
2011,04,07,15,45,10.60
2011,04,07,15,46,10.60
2011,04,07,15,47,10.70
2011,04,07,15,48,10.70
2011,04,07,15,49,10.70
2011,04,07,15,50,10.70
2011,04,07,15,51,10.80
2011,04,07,15,52,10.80
2011,04,07,15,53,10.90
2011,04,07,15,54,10.90
2011,04,07,15,55,10.90
2011,04,07,15,56,10.90
2011,04,07,15,57,10.90
2011,04,07,15,58,10.90
2011,04,07,15,59,10.90
2011,04,07,16,00,10.90
2011,04,07,16,01,10.90
2011,04,07,16,02,10.90
2011,04,07,16,03,10.90
2011,04,07,16,04,10.90
2011,04,07,16,05,11.00
2011,04,07,16,06,11.00
2011,04,07,16,07,11.10
2011,04,07,16,08,11.00
2011,04,07,16,09,11.00
2011,04,07,16,10,11.00
2011,04,07,16,11,11.00
2011,04,07,16,12,11.00
2011,04,07,16,13,11.10
2011,04,07,16,14,11.10
2011,04,07,16,15,11.10
2011,04,07,16,16,11.10
2011,04,07,16,17,11.10
2011,04,07,16,18,11.10
2011,04,07,16,19,11.00
2011,04,07,16,20,11.00
2011,04,07,16,21,11.00
2011,04,07,16,22,11.00
2011,04,07,16,23,10.90
2011,04,07,16,24,10.90
2011,04,07,16,25,10.90
2011,04,07,16,26,10.90
2011,04,07,16,27,10.90
2011,04,07,16,28,10.90
2011,04,07,16,29,11.00
2011,04,07,16,30,11.00
2011,04,07,16,31,11.10
2011,04,07,16,32,11.20
2011,04,07,16,33,11.20
2011,04,07,16,34,11.20
2011,04,07,16,35,11.20
2011,04,07,16,36,11.20
2011,04,07,16,37,11.10
2011,04,07,16,38,11.10
2011,04,07,16,39,11.10
2011,04,07,16,40,11.10
2011,04,07,16,41,11.10
2011,04,07,16,42,11.10
2011,04,07,16,43,11.20
2011,04,07,16,44,11.20
2011,04,07,16,45,11.20
2011,04,07,16,46,11.20
2011,04,07,16,47,11.20
2011,04,07,16,48,11.20
2011,04,07,16,49,11.20
2011,04,07,16,50,11.20
2011,04,07,16,51,11.20
2011,04,07,16,52,11.20
2011,04,07,16,53,11.20
2011,04,07,16,54,11.20
2011,04,07,16,55,11.20
2011,04,07,16,56,11.20
2011,04,07,16,57,11.10
2011,04,07,16,58,11.10
2011,04,07,16,59,11.20
2011,04,07,17,00,11.20
2011,04,07,17,01,11.20
2011,04,07,17,02,11.20
2011,04,07,17,03,11.30
2011,04,07,17,04,11.30
2011,04,07,17,05,11.30
2011,04,07,17,06,11.30
2011,04,07,17,07,11.30
2011,04,07,17,08,11.30
2011,04,07,17,09,11.20
2011,04,07,17,10,11.20
2011,04,07,17,11,11.20
2011,04,07,17,12,11.20
2011,04,07,17,13,11.20
2011,04,07,17,14,11.10
2011,04,07,17,15,11.20
2011,04,07,17,16,11.20
2011,04,07,17,17,11.20
2011,04,07,17,18,11.20
2011,04,07,17,19,11.20
2011,04,07,17,20,11.30
2011,04,07,17,21,11.30
2011,04,07,17,22,11.30
2011,04,07,17,23,11.30
2011,04,07,17,24,11.20
2011,04,07,17,25,11.20
2011,04,07,17,26,11.20
2011,04,07,17,27,11.10
2011,04,07,17,28,11.10
2011,04,07,17,29,11.10
2011,04,07,17,30,11.10
2011,04,07,17,31,11.10
2011,04,07,17,32,11.10
2011,04,07,17,33,11.10
2011,04,07,17,34,11.10
2011,04,07,17,35,11.10
2011,04,07,17,36,11.10
2011,04,07,17,37,11.10
2011,04,07,17,38,11.10
2011,04,07,17,39,11.10
2011,04,07,17,40,11.10
2011,04,07,17,41,11.10
2011,04,07,17,42,11.10
2011,04,07,17,43,11.10
2011,04,07,17,44,11.20
2011,04,07,17,45,11.20
2011,04,07,17,46,11.20
2011,04,07,17,47,11.20
2011,04,07,17,48,11.30
2011,04,07,17,49,11.30
2011,04,07,17,50,11.30
2011,04,07,17,51,11.40
2011,04,07,17,52,11.40
2011,04,07,17,53,11.40
2011,04,07,17,54,11.40
2011,04,07,17,55,11.40
2011,04,07,17,56,11.40